00001 3.34 0.12 K051U 43.77971 73.72889 80.42334 10.58276 0.0800887 0.21410131 2.7673017 MPC 24219 4676 62 1839-1994 0.54 M-v 30 Bowell 0000 (1) Ceres 00002 4.13 0.11 K051U 28.70170 310.54489 173.16604 34.85083 0.2302220 0.21341432 2.7732372 MPC 24084 5482 63 1839-1993 0.55 M-c 28 Bowell 0000 (2) Pallas 00003 5.33 0.32 K051U 300.24990 247.86205 170.12682 12.97175 0.2584015 0.22614578 2.6681509 MPC 24084 4741 65 1839-1993 0.56 M-c 08 Bowell 0000 (3) Juno 00005 6.85 0.15 K051U 122.79451 357.52667 141.68869 5.36966 0.1931425 0.23884841 2.5726921 0 MPO 41498 2178 100 1845-2002 0.56 M-v 38h Goffin 0000 (5) Astraea 00006 5.71 0.24 K051U 169.94840 239.24257 138.81775 14.75521 0.2010681 0.26067557 2.4269966 MPC 24219 3581 59 1869-1994 0.53 M-c 08 Bowell 0000 (6) Hebe 00007 5.51 0.15 K051U 189.25529 145.42823 259.73021 5.52597 0.2310166 0.26749921 2.3855455 MPC 24084 3313 57 1850-1993 0.57 M-c 08 Bowell 0000 (7) Iris 00008 6.49 0.28 K051U 66.04403 284.95519 111.03268 5.88699 0.1563307 0.30180260 2.2011724 0 MPO 25662 2438 102 1847-2000 0.54 M-v 38h Goffin 0000 (8) Flora 00010 5.43 0.15 K051U 309.58896 313.23677 283.59055 3.83965 0.1191926 0.17716500 3.1396707 0 MPC 35055 2261 104 1849-1999 0.53 M-v 38h Goffin 0000 (10) Hygiea 00011 6.55 0.15 K051U 24.90092 195.41160 125.63639 4.62425 0.0998489 0.25657427 2.4527916 MPC 24085 2613 61 1850-1993 0.57 M-c 08 Bowell 0000 (11) Parthenope 00013 6.74 0.15 K051U 27.41478 81.45854 43.29962 16.53999 0.0848735 0.23832237 2.5764765 0 MPO 2601 946 54 1850-2000 0.77 M-v 38h Williams 0000 (13) Egeria 00014 6.30 0.15 K051U 13.97846 96.39604 86.47212 9.10602 0.1685392 0.23705264 2.5856686 0 MPO 595 1765 84 1851-2000 0.54 M-v 38h Goffin 0000 (14) Irene 00015 5.28 0.23 K051U 171.66312 97.66427 293.34965 11.73095 0.1861754 0.22903038 2.6457003 0 MPO 25662 2071 91 1851-2001 0.52 M-v 38h Goffin 0000 (15) Eunomia 00016 5.90 0.20 K051U 343.14501 228.02146 150.35214 3.09543 0.1395292 0.19745459 2.9207287 0 MPC 35055 1831 96 1852-1998 0.53 M-v 38h Goffin 0000 (16) Psyche 00018 6.51 0.25 K051U 233.56026 228.00299 150.54130 10.12562 0.2184521 0.28340615 2.2954255 0 MPO 53552 4910 95 1852-2003 0.55 M-v 38h Goffin 0000 (18) Melpomene 00019 7.13 0.10 K051U 294.26188 182.06598 211.37482 1.57324 0.1593643 0.25833290 2.4416472 0 MPO 53552 2354 94 1852-2003 0.57 M-v 38h Goffin 0000 (19) Fortuna 00020 6.50 0.25 K051U 188.01698 255.57969 206.52184 0.70670 0.1431563 0.26366110 2.4086406 0 MPO 25662 1670 96 1852-2001 0.54 M-v 38h Goffin 0000 (20) Massalia 00022 6.45 0.21 K051U 243.79546 356.31274 66.24549 13.71049 0.1028764 0.19872833 2.9082352 0 MPO 53552 1675 90 1852-2003 0.56 M-v 38h Goffin 0000 (22) Kalliope 00023 6.95 0.15 K051U 213.01126 59.30616 67.23645 10.14454 0.2332913 0.23141260 2.6275120 0 MPO 4876 888 67 1852-2000 0.53 M-v 38h Goffin 0000 (23) Thalia 00026 7.5 0.15 K051U 1.94182 192.92066 45.88452 3.56228 0.0870274 0.22773349 2.6557353 0 MPO 50329 1192 105 1853-2003 0.56 M-v 38h Goffin 0000 (26) Proserpina 00028 7.09 0.15 K051U 247.67325 342.48492 144.51388 9.40120 0.1485714 0.21275751 2.7789418 0 MPO 50329 1939 113 1854-2003 0.57 M-v 38h Goffin 0000 (28) Bellona 00029 5.85 0.20 K051U 109.46314 63.00725 356.54425 6.10111 0.0714622 0.24121328 2.5558492 0 MPO 57621 2260 101 1825-2003 0.56 M-v 38h Goffin 0000 (29) Amphitrite 00037 7.29 0.24 K051U 228.46741 62.81269 7.41310 3.07376 0.1767709 0.22968198 2.6406942 0 MPC 31001 1399 97 1855-1996 0.55 M-v 38h Goffin 0000 (37) Fides 00039 6.1 0.15 K051U 268.35017 209.67899 157.17403 10.38418 0.1138853 0.21405503 2.7677005 0 MPC 30777 3843 90 1856-1996 0.52 M-v 38h Goffin 0000 (39) Laetitia 00042 7.53 0.15 K051U 301.08415 236.60337 84.40313 8.52900 0.2225741 0.25832512 2.4416962 0 MPO 9657 1078 79 1856-2000 0.53 M-v 38h Goffin 0000 (42) Isis 00043 7.93 0.11 K051U 11.21380 15.91172 264.94525 3.46738 0.1676650 0.30138060 2.2032267 0 MPC 25032 882 78 1857-1994 1.01 M-c 08 Goffin 0000 (43) Ariadne 00044 7.03 0.46 K051U 165.25063 342.50081 131.60933 3.70302 0.1488552 0.26131454 2.4230386 0 MPO 3854 1410 81 1857-2000 0.52 M-v 38h Goffin 0000 (44) Nysa 00045 7.46 0.07 K051U 339.33474 85.14763 147.94991 6.61002 0.0825969 0.21954975 2.7213272 0 MPO 41498 1174 85 1857-2002 0.56 M-v 38h Goffin 0000 (45) Eugenia 00051 7.35 0.08 K051U 127.35885 2.53908 176.17577 9.97219 0.0666728 0.27089858 2.3655469 0 MPC 31001 3595 87 1858-1997 0.52 M-v 38h Goffin 0000 (51) Nemausa 00052 6.31 0.18 K051U 16.89935 343.18326 129.01878 7.46900 0.1013663 0.18072124 3.0983461 MPC 24371 1231 82 1858-1994 0.80 M-c 08 Goffin 0000 (52) Europa 00054 7.66 0.15 K051U 309.42333 345.47955 313.46215 11.80480 0.1962837 0.22069006 2.7119449 0 MPO 31791 544 63 1858-2002 0.56 M-v 38h Goffin 0000 (54) Alexandra 00055 7.8 0.15 K051U 324.28101 4.39280 10.54741 7.18518 0.1447267 0.21507698 2.7589263 0 MPO 14338 981 69 1858-2001 0.53 M-v 38h Goffin 0000 (55) Pandora 00057 7.03 0.15 K051U 304.40504 213.04310 199.34416 15.20024 0.1184860 0.17629565 3.1499838 0 MPO 20668 1416 106 1859-2001 0.55 M-v 38h Goffin 0000 (57) Mnemosyne 00060 8.21 0.27 K051U 264.86662 270.38242 191.80556 3.60193 0.1822623 0.26610636 2.3938625 0 MPC 27692 434 64 1860-1994 1.05 M-v 38d Goffin 0000 (60) Echo 00067 8.28 0.15 K051U 359.07539 106.32242 202.72832 6.02696 0.1845346 0.26158452 2.4213711 0 MPC 26379 412 63 1861-1994 1.00 M-v 38d Goffin 0000 (67) Asia 00068 6.78 0.05 K051U 236.25421 305.12137 44.18281 7.96965 0.1849814 0.21211325 2.7845660 0 MPO 57621 1282 93 1861-2003 0.57 M-v 38h Goffin 0000 (68) Leto 00069 7.05 0.19 K051U 22.64517 290.01350 185.17981 8.58884 0.1649852 0.19156548 2.9802856 1 MPC 27086 449 69 1861-1993 1.01 M-v 38d Goffin 0000 (69) Hesperia 00070 8.11 0.14 K051U 298.33432 255.75818 47.80547 11.58414 0.1810985 0.23291449 2.6162047 1 MPO 2601 276 43 1866-2000 0.80 M-v 38h Williams 0000 (70) Panopaea 00072 8.94 0.15 K051U 304.77392 102.55785 208.14109 5.41730 0.1202579 0.28892862 2.2660823 0 MPO 53552 805 61 1862-2003 0.56 M-v 38h Goffin 0000 (72) Feronia 00088 7.04 0.14 K051U 15.61695 36.63219 276.77812 5.21756 0.1643563 0.21401515 2.7680443 0 MPC 31001 998 68 1866-1997 0.54 M-v 38h Goffin 0000 (88) Thisbe 00089 6.60 0.15 K051U 319.66588 45.08235 311.65881 16.14048 0.1836203 0.24202909 2.5501027 0 MPC 30777 722 59 1866-1995 0.54 M-v 38h Goffin 0000 (89) Julia 00092 6.61 0.15 K051U 356.10850 242.35928 101.84357 9.92074 0.1002389 0.17295252 3.1904464 0 MPO 2601 300 58 1871-1999 0.92 M-v 38h Williams 0000 (92) Undina 00101 8.33 0.35 K051U 319.35611 347.86463 343.48305 10.20017 0.1412175 0.23749070 2.5824880 0 MPO 50329 589 55 1868-2003 0.56 M-v 38h Goffin 0000 (101) Helena 00103 7.66 0.15 K051U 279.68853 189.97343 136.28457 5.42140 0.0792552 0.22188630 2.7021890 0 MPO 8362 497 76 1868-2000 0.56 M-v 38h Goffin 0000 (103) Hera 00115 7.51 0.12 K051U 61.42756 96.25035 309.14068 11.60011 0.1915364 0.26847801 2.3797440 0 MPO 2601 616 46 1872-1999 0.62 M-v 38h Williams 0000 (115) Thyra 00129 7.07 0.33 K051U 328.62470 108.09683 136.45695 12.21934 0.2132966 0.20286031 2.8686088 0 MPO 2601 871 50 1915-2000 0.63 M-v 38h Williams 0000 (129) Antigone 00144 7.91 0.17 K051U 263.35930 293.68467 76.48939 4.80833 0.2352980 0.22797623 2.6538498 MPC 22665 238 54 1875-1990 0.99 M-c 08 Goffin 0000 (144) Vibilia 00216 7.30 0.29 K051U 55.25948 179.09920 215.67216 13.13557 0.2519224 0.21117632 2.7927961 0 MPC 31001 1272 69 1880-1997 0.52 M-v 38h Goffin 0000 (216) Kleopatra 00349 5.93 0.37 K051U 198.14778 347.17078 32.50016 8.25629 0.0869519 0.19686154 2.9265917 0 MPC 31001 1414 72 1892-1996 0.53 M-v 38h Goffin 0000 (349) Dembowska 00386 7.43 0.16 K051U 305.66343 220.25421 166.95058 20.25541 0.1729284 0.20013157 2.8946250 0 MPO 50329 903 63 1894-2003 0.56 M-v 38h Goffin 0000 (386) Siegena 00409 7.62 0.29 K051U 340.52370 352.33029 242.37017 11.24143 0.0711033 0.23827052 2.5768502 0 MPO 57621 964 61 1895-2003 0.56 M-v 38h Goffin 0000 (409) Aspasia 00471 6.73 0.37 K051U 282.23242 314.56152 84.10325 14.98514 0.2335085 0.20106070 2.8857006 0 MPC 31001 899 60 1901-1997 0.52 M-v 38h Goffin 0000 (471) Papagena 00532 5.81 0.26 K051U 312.98508 76.97116 107.64158 16.30928 0.1783187 0.21370705 2.7707041 0 MPC 31002 2223 69 1904-1997 0.53 M-v 38h Goffin 0000 (532) Herculina 00675 7.91 0.15 K051U 281.31717 152.03009 263.43932 9.80161 0.2043804 0.21403024 2.7679142 0 MPO 12096 320 43 1908-2000 0.53 M-v 38h Goffin 0000 (675) Ludmilla 00704 5.94 -0.02 K051U 222.45730 95.69871 280.40790 17.28715 0.1492471 0.18393560 3.0621434 0 MPC 31002 2007 62 1910-1997 0.53 M-v 38h Goffin 0000 (704) Interamnia 00712 8.32 0.03 K051U 297.64279 181.23539 231.05226 12.78069 0.1882963 0.23861984 2.5743348 0 MPO 33740 483 44 1911-2002 0.55 M-v 38h Goffin 0000 (712) Boliviana